• In Kazakhstan
  • List of Countries
  • For 7 days
  • Water Temperature
  • Weather Map
  • News
  • Weather Widgets
  • user-avatar
    Login

    Hourly Weather Mochudi

    Today, 21 February, Friday

    Time Temperature Precipitation Wind Pressure Humidity
    00:00 +29°C° 0 mm 1 mps 680 mmHg 39%
    01:00 +28°C° 0 mm 1 mps 679 mmHg 40%
    02:00 +28°C° 0 mm 1 mps 679 mmHg 42%
    03:00 +27°C° 0 mm 1 mps 679 mmHg 44%
    04:00 +27°C° 0 mm 1 mps 679 mmHg 46%
    05:00 +26°C° 0 mm 1 mps 679 mmHg 48%
    06:00 +27°C° 0 mm 1 mps 679 mmHg 46%
    07:00 +28°C° 0 mm 2 mps 680 mmHg 44%
    08:00 +29°C° 0 mm 2 mps 681 mmHg 42%
    15:00 +37°C° 0 mm 1 mps 679 mmHg 25%
    16:00 +37°C° 0 mm 1 mps 679 mmHg 25%
    17:00 +37°C° 0 mm 1 mps 678 mmHg 24%
    18:00 +35°C° 0 mm 1 mps 678 mmHg 27%
    19:00 +33°C° 0 mm 1 mps 678 mmHg 30%
    20:00 +31°C° 0 mm 1 mps 678 mmHg 33%
    21:00 +31°C° 0 mm 1 mps 678 mmHg 34%
    22:00 +31°C° 0 mm 1 mps 678 mmHg 35%
    23:00 +30°C° 0 mm 1 mps 678 mmHg 36%

    Tomorrow, 22 February, Saturday

    Time Temperature Precipitation Wind Pressure Humidity
    00:00 +30°C° 0 mm 2 mps 678 mmHg 37%
    01:00 +30°C° 0 mm 2 mps 678 mmHg 38%
    02:00 +30°C° 0 mm 2 mps 678 mmHg 39%
    03:00 +29°C° 0 mm 3 mps 678 mmHg 46%
    04:00 +28°C° 0 mm 3 mps 678 mmHg 53%
    05:00 +27°C° 0 mm 4 mps 678 mmHg 61%
    06:00 +27°C° 0 mm 4 mps 679 mmHg 62%
    07:00 +27°C° 0 mm 5 mps 679 mmHg 64%
    08:00 +28°C° 0 mm 5 mps 680 mmHg 66%
    09:00 +30°C° 0 mm 5 mps 680 mmHg 57%
    10:00 +33°C° 0 mm 5 mps 680 mmHg 49%
    11:00 +35°C° 0 mm 4 mps 680 mmHg 41%
    12:00 +36°C° 0 mm 4 mps 679 mmHg 37%
    13:00 +37°C° 0 mm 3 mps 679 mmHg 33%
    14:00 +38°C° 0 mm 2 mps 678 mmHg 29%
    15:00 +37°C° 0 mm 3 mps 677 mmHg 31%
    16:00 +36°C° 0 mm 3 mps 676 mmHg 34%
    17:00 +35°C° 0 mm 3 mps 676 mmHg 37%
    18:00 +33°C° 0.3 mm 3 mps 676 mmHg 44%
    19:00 +30°C° 0.3 mm 3 mps 676 mmHg 51%
    20:00 +28°C° 0.3 mm 3 mps 676 mmHg 58%
    21:00 +27°C° 0.1 mm 3 mps 677 mmHg 62%
    22:00 +27°C° 0.1 mm 3 mps 678 mmHg 67%
    23:00 +26°C° 0.1 mm 3 mps 678 mmHg 72%

    Day after tomorrow, 23 February, Sunday

    Time Temperature Precipitation Wind Pressure Humidity
    00:00 +25°C° 1 mm 3 mps 678 mmHg 75%
    01:00 +24°C° 1 mm 2 mps 678 mmHg 78%
    02:00 +23°C° 1 mm 2 mps 677 mmHg 82%
    03:00 +23°C° 0.4 mm 2 mps 677 mmHg 83%
    04:00 +23°C° 0.4 mm 2 mps 677 mmHg 84%
    05:00 +21°C° 0.4 mm 2 mps 677 mmHg 86%
    06:00 +23°C° 0 mm 2 mps 677 mmHg 82%
    07:00 +24°C° 0 mm 2 mps 678 mmHg 78%
    08:00 +25°C° 0 mm 2 mps 678 mmHg 74%
    09:00 +27°C° 0 mm 2 mps 678 mmHg 65%
    10:00 +29°C° 0 mm 2 mps 679 mmHg 56%
    11:00 +31°C° 0 mm 3 mps 679 mmHg 47%
    12:00 +33°C° 0 mm 3 mps 679 mmHg 46%
    13:00 +33°C° 0 mm 3 mps 678 mmHg 44%
    14:00 +34°C° 0 mm 2 mps 678 mmHg 42%
    15:00 +31°C° 1.8 mm 3 mps 677 mmHg 52%
    16:00 +29°C° 1.8 mm 3 mps 677 mmHg 62%
    17:00 +27°C° 1.8 mm 3 mps 676 mmHg 72%
    18:00 +25°C° 4.8 mm 4 mps 677 mmHg 79%
    19:00 +22°C° 4.8 mm 5 mps 678 mmHg 85%
    20:00 +21°C° 4.8 mm 6 mps 678 mmHg 91%
    21:00 +21°C° 2.2 mm 6 mps 679 mmHg 91%
    22:00 +20°C° 2.2 mm 6 mps 680 mmHg 91%
    23:00 +20°C° 2.2 mm 7 mps 681 mmHg 90%

    24 February, Monday

    Time Temperature Precipitation Wind Pressure Humidity
    00:00 +20°C° 0.2 mm 6 mps 680 mmHg 89%
    01:00 +20°C° 0.2 mm 6 mps 680 mmHg 89%
    02:00 +19°C° 0.2 mm 5 mps 680 mmHg 88%
    03:00 +19°C° 0.1 mm 5 mps 680 mmHg 88%
    04:00 +19°C° 0.1 mm 5 mps 680 mmHg 88%
    05:00 +17°C° 0.1 mm 5 mps 680 mmHg 88%
    06:00 +17°C° 0 mm 5 mps 681 mmHg 87%
    07:00 +17°C° 0 mm 5 mps 681 mmHg 86%
    08:00 +17°C° 0 mm 5 mps 681 mmHg 85%
    09:00 +19°C° 0 mm 5 mps 682 mmHg 79%
    10:00 +19°C° 0 mm 5 mps 682 mmHg 74%
    11:00 +20°C° 0 mm 6 mps 682 mmHg 69%
    12:00 +21°C° 0 mm 6 mps 682 mmHg 63%
    13:00 +22°C° 0 mm 5 mps 682 mmHg 58%
    14:00 +25°C° 0 mm 5 mps 682 mmHg 52%
    15:00 +23°C° 0 mm 5 mps 681 mmHg 53%
    16:00 +23°C° 0 mm 5 mps 681 mmHg 55%
    17:00 +23°C° 0 mm 5 mps 681 mmHg 56%
    18:00 +22°C° 0 mm 4 mps 681 mmHg 62%
    19:00 +20°C° 0 mm 4 mps 681 mmHg 68%
    20:00 +19°C° 0 mm 3 mps 681 mmHg 74%
    21:00 +18°C° 0 mm 3 mps 681 mmHg 75%
    22:00 +18°C° 0 mm 3 mps 681 mmHg 76%
    23:00 +18°C° 0 mm 3 mps 682 mmHg 77%

    25 February, Tuesday

    Time Temperature Precipitation Wind Pressure Humidity
    00:00 +17°C° 0 mm 3 mps 681 mmHg 79%
    01:00 +17°C° 0 mm 3 mps 681 mmHg 80%
    02:00 +17°C° 0 mm 2 mps 681 mmHg 81%
    03:00 +17°C° 0 mm 2 mps 681 mmHg 83%
    04:00 +16°C° 0 mm 2 mps 681 mmHg 85%
    05:00 +16°C° 0 mm 2 mps 681 mmHg 87%
    06:00 +17°C° 0 mm 3 mps 681 mmHg 83%
    07:00 +17°C° 0 mm 3 mps 681 mmHg 79%
    08:00 +18°C° 0 mm 4 mps 682 mmHg 76%
    09:00 +19°C° 0 mm 4 mps 682 mmHg 71%
    10:00 +21°C° 0 mm 4 mps 682 mmHg 66%
    11:00 +22°C° 0 mm 4 mps 682 mmHg 61%
    12:00 +23°C° 0 mm 4 mps 682 mmHg 60%
    13:00 +23°C° 0 mm 4 mps 682 mmHg 59%
    14:00 +23°C° 0 mm 4 mps 681 mmHg 58%
    15:00 +24°C° 0 mm 3 mps 680 mmHg 60%
    16:00 +22°C° 0 mm 3 mps 680 mmHg 62%
    17:00 +21°C° 0 mm 3 mps 679 mmHg 64%
    18:00 +21°C° 0 mm 3 mps 679 mmHg 66%
    19:00 +20°C° 0 mm 2 mps 679 mmHg 67%
    20:00 +20°C° 0 mm 2 mps 680 mmHg 69%
    21:00 +21°C° 0 mm 1 mps 680 mmHg 69%
    22:00 +21°C° 0 mm 1 mps 680 mmHg 69%
    23:00 +21°C° 0 mm 1 mps 680 mmHg 70%

    26 February, Wednesday

    Time Temperature Precipitation Wind Pressure Humidity
    00:00 +21°C° 0 mm 1 mps 680 mmHg 72%
    01:00 +20°C° 0 mm 1 mps 679 mmHg 73%
    02:00 +20°C° 0 mm 1 mps 679 mmHg 75%
    03:00 +19°C° 0 mm 2 mps 679 mmHg 74%
    04:00 +19°C° 0 mm 2 mps 680 mmHg 73%
    05:00 +19°C° 0 mm 3 mps 680 mmHg 71%
    06:00 +19°C° 0 mm 3 mps 680 mmHg 71%
    07:00 +19°C° 0 mm 3 mps 680 mmHg 71%
    08:00 +19°C° 0 mm 3 mps 681 mmHg 70%
    09:00 +21°C° 0 mm 3 mps 681 mmHg 65%
    10:00 +22°C° 0 mm 3 mps 681 mmHg 60%
    11:00 +23°C° 0 mm 4 mps 681 mmHg 55%
    12:00 +26°C° 0 mm 4 mps 681 mmHg 49%
    13:00 +28°C° 0 mm 4 mps 681 mmHg 43%
    14:00 +29°C° 0 mm 4 mps 680 mmHg 37%
    15:00 +30°C° 0 mm 3 mps 680 mmHg 35%
    16:00 +30°C° 0 mm 3 mps 680 mmHg 34%
    17:00 +30°C° 0 mm 3 mps 679 mmHg 33%
    18:00 +29°C° 0 mm 2 mps 679 mmHg 36%
    19:00 +27°C° 0 mm 2 mps 679 mmHg 40%
    20:00 +25°C° 0 mm 2 mps 679 mmHg 44%
    21:00 +25°C° 0 mm 1 mps 679 mmHg 45%
    22:00 +24°C° 0 mm 1 mps 679 mmHg 46%
    23:00 +24°C° 0 mm 1 mps 679 mmHg 48%
    Show more